[[{"header":{"parameterUnit":"m.s-1","parameterCategory":1,"la1":30.2991,"la2":30.254,"lo1":-89.0895,"lo2":-89.0444,"dy":0.0017,"dx":0.0017,"nx":28,"ny":28,"refTime":"2023-08-11T03:00:00:Z","depth":0,"parameterNumber":2,"parameterNumberName":"U-component_of_WINDS"},"data":[0,0,0,0,0,0,0,0,0,0,0,0,0,0,0,0,0,0,0,0,0,0,0,0,0,0,0,0,0,0,0,0,0,0,0,0,0,0,0,0,0,0,0,0,0,0,0,0,0,0,0,0,0,0,0,0,0,0,2.0766,2.0767,0,2.0846,2.0847,2.0848,2.0789,2.0786,2.0784,2.0781,2.0863,2.0868,2.0872,0,0,0,0,0,0,0,0,0,0,0,0,0,2.056,2.0564,2.0766,2.0767,2.0768,2.0846,2.0847,2.0848,2.0789,2.0786,2.0783,2.078,2.0862,2.0867,2.0873,0,0,0,0,0,0,0,0,0,0,0,0,0,2.0646,2.0565,2.0766,2.0748,2.0747,2.0846,2.0847,2.0848,2.079,2.0786,2.0782,2.0779,2.086,2.0867,2.0874,2.0994,0,0,2.0895,2.0898,0,0,0,0,0,0,0,0,2.0641,2.0653,2.075,2.0749,2.0749,2.0804,2.0804,2.0897,2.0791,2.0774,2.0781,2.0777,2.0847,2.0854,2.0878,2.0997,2.1001,2.0895,2.0899,2.0902,2.0904,0,0,0,0,0,0,0,2.0635,2.065,2.0798,2.0751,2.0751,2.0735,2.0743,2.0822,2.0831,2.0775,2.0771,2.0781,2.0846,2.0871,2.0879,2.1002,2.0895,2.0901,2.0905,2.0908,2.1222,2.1226,0,0,0,0,0,0,2.0631,2.0645,2.0795,2.08,2.0684,2.0742,2.0751,2.079,2.083,2.0832,2.0784,2.0778,2.0862,2.0871,2.0882,2.1024,2.0902,2.0909,2.0913,2.1218,2.1223,2.1227,0,0,0,0,0,0,2.0627,2.0645,2.0792,2.0721,2.0739,2.075,2.0794,2.0793,2.0819,2.0837,2.0838,2.0809,2.0859,2.0872,2.0966,2.1026,2.0912,2.0918,2.1213,2.1219,2.1225,2.131,0,0,0,0,0,0,2.0621,2.0644,2.069,2.0723,2.0743,2.0875,2.0798,2.0798,2.0831,2.0824,2.0861,2.0863,2.0857,2.0956,2.0973,2.1034,2.0923,2.1207,2.1215,2.1223,2.1302,2.1319,2.1333,0,0,0,0,0,2.0614,2.0712,2.0693,2.0711,2.0801,2.0879,2.089,2.0881,2.0836,2.0883,2.0894,2.0862,2.1017,2.0966,2.0984,2.1048,2.1203,2.1213,2.1222,2.1295,2.1315,2.1332,0,0,0,0,0,0,2.0686,2.0716,2.0695,2.0807,2.0841,2.0869,2.0927,2.0903,2.0951,2.0942,2.0928,2.0937,2.1035,2.105,2.0994,2.1165,2.1103,2.1116,2.1152,2.1171,2.1186,2.1181,2.0929,0,0,0,0,0,2.0715,2.0776,2.0798,2.0894,2.0912,2.0917,2.095,2.094,2.0975,2.0989,2.1007,2.1041,2.1097,2.1135,2.1188,2.1303,2.131,2.1356,2.1371,2.1384,2.1396,2.1457,2.1477,2.1258,2.1258,2.1258,0,0,2.0776,2.0799,2.0839,2.0909,2.0934,2.0997,2.0929,2.0999,2.1045,2.0999,2.1089,2.1103,2.114,2.1245,2.1292,2.1261,2.1458,2.1396,2.1406,2.1411,2.1469,2.1489,2.1508,2.1265,2.1263,2.1262,0,0,2.0918,2.0942,2.1024,2.105,2.1088,2.109,2.111,2.1142,2.1149,2.1238,2.1204,2.1258,2.1356,2.1384,2.141,2.156,2.1532,2.1577,2.1658,2.1717,2.1735,2.175,2.1803,2.1822,2.1589,2.1589,2.1589,0,2.0988,2.1082,2.1069,2.1141,2.1172,2.1132,2.1214,2.124,2.1294,2.1316,2.1281,2.1401,2.1423,2.1533,2.1569,2.1592,2.1614,2.1574,2.1733,2.1748,2.1762,2.1812,2.1832,2.1595,2.1594,2.1593,2.1593,0,2.1166,2.1231,2.1292,2.1345,2.1383,2.1459,2.1457,2.1497,2.1482,2.1488,2.1578,2.1603,2.1659,2.1684,2.1672,2.1792,2.1771,2.1735,2.1672,2.1789,2.1836,2.1855,2.1602,2.16,2.1599,2.1597,0,0,2.1358,2.1401,2.1423,2.1446,2.1484,2.1534,2.1608,2.1662,2.1696,2.1734,2.1795,2.1877,2.1842,2.1873,2.1862,2.1914,2.203,2.1871,2.1871,2.1899,2.2163,2.2191,2.2213,2.2011,2.2014,2.2017,2.216,0,2.1502,2.1631,2.162,2.1742,2.1801,2.1763,2.1827,2.1857,2.1863,2.1913,2.192,2.1978,2.1929,2.1946,2.1996,2.2005,2.2083,2.1995,2.2067,2.207,2.206,2.2238,2.2268,2.2401,2.2178,2.2181,2.2183,0,2.1688,2.1731,2.1859,2.1886,2.1911,2.1969,2.2017,2.2066,2.2098,2.2098,2.2131,2.2111,2.2184,2.2118,2.2218,2.2158,2.2187,2.2195,2.22,2.2207,2.2134,2.225,2.2444,2.2464,2.2212,2.221,2.2208,0,2.1815,2.1905,2.1993,2.2013,2.2048,2.2089,2.2105,2.2133,2.2166,2.2208,2.2229,2.2278,2.2306,2.2344,2.2337,2.229,2.2439,2.2373,2.2441,2.2441,2.2475,2.2473,2.2677,2.2493,2.2492,2.2492,2.2491,0,2.1977,2.2057,2.205,2.2104,2.2192,2.2177,2.2264,2.2275,2.23,2.2355,2.2324,2.2376,2.2363,2.2414,2.2409,2.2492,2.2504,2.2506,2.2504,2.251,2.251,2.2529,2.252,2.2497,2.2496,2.2495,2.2494,0,2.2135,2.2134,2.2227,2.2251,2.2259,2.2322,2.2342,2.2392,2.2395,2.2464,2.248,2.2484,2.2542,2.2538,2.2604,2.2601,2.2703,2.2689,2.2692,2.269,2.2758,2.2752,2.2982,2.3011,2.2807,2.2809,2.2811,0,2.2239,2.2299,2.2329,2.2364,2.2382,2.2438,2.2471,2.2458,2.2494,2.2534,2.2579,2.2634,2.2678,2.2772,2.2781,2.283,2.2818,2.2895,2.2826,2.2829,2.2819,2.2816,2.2822,2.2909,2.2912,2.2913,2.2915,0,2.2424,2.2419,2.2469,2.2517,2.2557,2.2595,2.2629,2.2658,2.2649,2.269,2.2749,2.2782,2.2848,2.2903,2.295,2.2966,2.2939,2.2936,2.2955,2.2962,2.2961,2.2962,2.273,2.2932,2.293,2.2929,2.2928,2.2927,2.2558,2.2609,2.2638,2.2693,2.2717,2.2749,2.2797,2.2805,2.2854,2.2907,2.2895,2.2962,2.299,2.305,2.3069,2.312,2.3092,2.3119,2.3126,2.3133,2.3141,2.2952,2.3128,2.3128,2.3127,2.3127,2.3127,0,2.2741,2.2757,2.2808,2.2856,2.2899,2.2868,2.2904,2.2942,2.3,2.3029,2.3072,2.3138,2.319,2.3202,2.3252,2.329,2.3279,2.3304,2.3301,2.3305,2.3163,2.3142,2.3312,2.3312,2.3312,2.3312,2.3312,2.3312,2.2841,2.2926,2.2925,2.302,2.3035,2.31,2.3122,2.3151,2.3174,2.3249,2.3293,2.33,2.3321,2.3371,2.3418,2.3419,2.3439,2.3469,2.3466,2.3334,2.3315,2.3298,2.3278,2.3473,2.3474,2.3604,2.3605,2.3606]},{"header":{"parameterUnit":"m.s-1","parameterCategory":1,"la1":30.2991,"la2":30.254,"lo1":-89.0895,"lo2":-89.0444,"dy":0.0017,"dx":0.0017,"nx":28,"ny":28,"refTime":"2023-08-11T03:00:00:Z","depth":0,"parameterNumber":3,"parameterNumberName":"V-component_of_WINDS"},"data":[0,0,0,0,0,0,0,0,0,0,0,0,0,0,0,0,0,0,0,0,0,0,0,0,0,0,0,0,0,0,0,0,0,0,0,0,0,0,0,0,0,0,0,0,0,0,0,0,0,0,0,0,0,0,0,0,0,0,5.8915,5.8915,0,5.8923,5.8923,5.8923,5.8834,5.8831,5.8829,5.8827,5.8833,5.8836,5.8838,0,0,0,0,0,0,0,0,0,0,0,0,0,5.8822,5.8824,5.8915,5.8915,5.8915,5.8923,5.8923,5.8923,5.8834,5.8831,5.8828,5.8826,5.8832,5.8835,5.8838,0,0,0,0,0,0,0,0,0,0,0,0,0,5.8849,5.8825,5.8915,5.8872,5.8868,5.8923,5.8923,5.8923,5.8835,5.8831,5.8828,5.8824,5.8831,5.8835,5.8839,5.8934,0,0,5.885,5.8851,0,0,0,0,0,0,0,0,5.8848,5.8853,5.8878,5.8875,5.8871,5.8874,5.8892,5.8927,5.8836,5.8848,5.8827,5.8822,5.885,5.8851,5.8861,5.8934,5.8935,5.885,5.8852,5.8854,5.8855,0,0,0,0,0,0,0,5.8846,5.8852,5.8918,5.8879,5.8874,5.8852,5.8851,5.8898,5.8869,5.8846,5.884,5.8842,5.8847,5.8858,5.886,5.8935,5.885,5.8853,5.8855,5.8857,5.9085,5.9089,0,0,0,0,0,0,5.885,5.8851,5.8918,5.8918,5.885,5.8856,5.8856,5.8876,5.8868,5.8863,5.8845,5.8838,5.8853,5.8856,5.886,5.8969,5.8854,5.8857,5.8859,5.9081,5.9086,5.909,0,0,0,0,0,0,5.8848,5.8857,5.8917,5.8883,5.8889,5.8862,5.8885,5.8879,5.8889,5.8867,5.8861,5.8862,5.885,5.8855,5.8916,5.8969,5.8859,5.8862,5.9076,5.9082,5.9088,5.9191,0,0,0,0,0,0,5.8846,5.8857,5.8894,5.8884,5.8891,5.8974,5.8889,5.8881,5.8896,5.8886,5.8881,5.8877,5.8848,5.8911,5.892,5.8972,5.8865,5.9072,5.9079,5.9086,5.9182,5.9199,5.9214,0,0,0,0,0,5.8843,5.8922,5.8896,5.8904,5.8936,5.8977,5.8981,5.8946,5.8901,5.8936,5.8922,5.8877,5.8962,5.8918,5.8927,5.8981,5.9068,5.9077,5.9085,5.9175,5.9196,5.9213,0,0,0,0,0,0,5.8938,5.892,5.8891,5.897,5.8976,5.8962,5.9007,5.897,5.8989,5.8979,5.8935,5.8934,5.9002,5.8998,5.8949,5.9072,5.9007,5.9018,5.9072,5.9091,5.9107,5.9105,5.8868,0,0,0,0,0,5.8969,5.9004,5.8986,5.9058,5.9062,5.9034,5.9051,5.9024,5.9028,5.903,5.902,5.9026,5.9053,5.9072,5.9097,5.9182,5.9178,5.9223,5.9239,5.9252,5.9261,5.9304,5.9323,5.9118,5.9118,5.9118,0,0,5.9031,5.9026,5.9051,5.9076,5.9078,5.9114,5.9037,5.9079,5.9105,5.9036,5.9092,5.9086,5.9089,5.9162,5.9193,5.916,5.9317,5.9263,5.9273,5.9275,5.9315,5.9334,5.9351,5.9124,5.9123,5.9122,0,0,5.9164,5.9164,5.9222,5.9225,5.9229,5.9209,5.9224,5.9216,5.9208,5.9264,5.9212,5.9243,5.9292,5.9296,5.9304,5.9437,5.9396,5.9447,5.9527,5.9569,5.9586,5.9599,5.9645,5.9662,5.9456,5.9457,5.9457,0,5.9241,5.9294,5.9257,5.9302,5.9314,5.9253,5.9311,5.9316,5.9327,5.9336,5.9299,5.9358,5.9356,5.9428,5.9461,5.947,5.9484,5.9446,5.9586,5.96,5.9613,5.9655,5.9673,5.9463,5.9462,5.9461,5.9461,0,5.9388,5.9426,5.9473,5.9484,5.9502,5.9553,5.9523,5.9545,5.9516,5.95,5.9557,5.9553,5.9574,5.959,5.9563,5.9658,5.9637,5.9594,5.9527,5.9639,5.9678,5.9694,5.9471,5.9469,5.9467,5.9466,0,0,5.958,5.957,5.9587,5.9591,5.959,5.9618,5.9666,5.9687,5.9706,5.9716,5.9754,5.9797,5.9757,5.9766,5.9739,5.9776,5.9879,5.9728,5.9728,5.9755,5.9981,6.0012,6.0032,5.9853,5.9856,5.9858,5.998,0,5.9707,5.9789,5.9756,5.984,5.9873,5.9816,5.9857,5.9861,5.9848,5.9873,5.9858,5.9889,5.9835,5.984,5.9874,5.986,5.9924,5.9851,5.9886,5.9888,5.9885,6.0053,6.0085,6.0201,5.9996,5.9998,6.0,0,5.9866,5.9881,5.9969,5.996,5.9973,6.0011,6.0026,6.0053,6.0055,6.0042,6.0053,6.0017,6.0062,5.9998,6.0059,6.001,6.0023,6.0018,6.0021,6.0021,5.9949,6.0055,6.0237,6.0254,6.0025,6.0023,6.0021,0,5.9994,6.0037,6.0094,6.01,6.0092,6.0119,6.0117,6.0116,6.013,6.0144,6.0152,6.0172,6.0182,6.0198,6.0167,6.0123,6.0232,6.0165,6.0222,6.0223,6.0246,6.0244,6.043,6.0258,6.0258,6.0258,6.0257,0,6.0138,6.0193,6.0151,6.0187,6.0246,6.0208,6.0268,6.0259,6.0258,6.029,6.0242,6.0273,6.0232,6.0258,6.0235,6.0288,6.0294,6.0284,6.0277,6.0287,6.0288,6.0293,6.0284,6.0262,6.0261,6.026,6.0259,0,6.029,6.0265,6.0323,6.0311,6.0309,6.0353,6.0342,6.0373,6.0356,6.0397,6.0404,6.0378,6.0407,6.0379,6.0406,6.039,6.0461,6.0443,6.046,6.0454,6.0511,6.0505,6.0705,6.0728,6.0544,6.0546,6.0547,0,6.0383,6.0424,6.0415,6.0433,6.0433,6.0463,6.0477,6.0441,6.0457,6.0462,6.0493,6.0517,6.0534,6.0583,6.0566,6.0586,6.0567,6.0636,6.057,6.0578,6.0565,6.0562,6.0565,6.0649,6.0651,6.0653,6.0654,0,6.0549,6.0534,6.0556,6.0574,6.0592,6.0604,6.0612,6.063,6.0592,6.0613,6.0641,6.0655,6.0682,6.0707,6.0722,6.0719,6.068,6.0675,6.0689,6.0699,6.0706,6.07,6.0494,6.067,6.0669,6.0667,6.0667,6.0666,6.0672,6.0705,6.0703,6.0729,6.0732,6.0741,6.0769,6.0756,6.0779,6.0798,6.0775,6.081,6.081,6.0826,6.0827,6.0853,6.0824,6.0845,6.0849,6.0854,6.0862,6.0704,6.0856,6.0856,6.0855,6.0855,6.0854,0,6.0833,6.0829,6.0854,6.0866,6.0886,6.0849,6.0856,6.0875,6.0906,6.0909,6.0927,6.0959,6.0983,6.0968,6.0987,6.1011,6.0994,6.1017,6.1014,6.1013,6.0888,6.0873,6.1031,6.1031,6.1031,6.1031,6.1031,6.1031,6.0919,6.0972,6.0957,6.101,6.1005,6.1038,6.1045,6.1053,6.1055,6.1093,6.1112,6.1102,6.1098,6.1116,6.1136,6.1131,6.1139,6.1169,6.1157,6.104,6.1022,6.1006,6.0991,6.1172,6.1172,6.128,6.1281,6.1282]}]]